FW5161 Weather Reports


Display with metric or nautical units.
time (UTC)temp
F
wind
direction
speed
MPH
gust
MPH
rain 1hr
in
rain 24hr
in
rain mn
in
humidity
%
barometer
mb
20260901020208 65 49 1.0 6.0 0.00 0.00 0.00 73 1008.2
20260901015707 65 334 1.0 6.0 0.00 0.00 0.00 72 1008.2
20260901015204 65 103 2.0 6.0 0.00 0.00 0.00 73 1008.3
20260901014707 65 104 2.0 6.0 0.00 0.00 0.00 74 1008.3
20260901014206 65 94 1.0 5.0 0.00 0.00 0.00 74 1008.4
20260901013705 65 91 1.0 5.0 0.00 0.00 0.00 74 1008.6
20260901013204 65 64 2.0 7.0 0.00 0.00 0.00 73 1008.5
20260901012937 65 107 2.0 7.0 0.00 0.00 0.00 73 1008.5
20260901012202 65 86 2.0 7.0 0.00 0.00 0.00 73 1008.6
20260901011701 65 82 2.0 5.0 0.00 0.00 0.00 71 1008.6
20260901011433 66 125 2.0 5.0 0.00 0.00 0.00 70 1008.6
20260901010700 66 80 2.0 4.0 0.00 0.00 0.00 70 1008.6
20260901010201 66 61 2.0 4.0 0.00 0.00 0.00 70 1008.6
20260901005701 66 67 1.0 4.0 0.00 0.00 0.00 70 1008.7
20260901005202 67 37 1.0 4.0 0.00 0.00 0.00 69 1008.7
20260901004700 67 318 1.0 5.0 0.00 0.00 0.00 67 1008.7
20260901004202 67 295 2.0 5.0 0.00 0.00 0.00 67 1008.6
20260901003701 67 299 2.0 5.0 0.00 0.00 0.00 68 1008.8
20260901003432 67 127 2.0 4.0 0.00 0.00 0.00 67 1008.8
20260901002701 68 102 2.0 4.0 0.00 0.00 0.00 66 1008.8
20260901002203 68 306 2.0 4.0 0.00 0.00 0.00 66 1008.8
20260901001930 69 320 2.0 6.0 0.00 0.00 0.00 67 1009.0
20260901001200 68 312 2.0 6.0 0.00 0.00 0.00 68 1008.9
20260901000701 67 51 2.0 6.0 0.00 0.00 0.00 69 1009.1
20260901000203 69 280 2.0 6.0 0.00 0.00 0.00 66 1009.0
20260831235701 68 95 2.0 6.0 0.00 0.00 0.00 65 1009.0
20260831235201 67 118 1.0 5.0 0.00 0.00 0.00 67 1009.1
20260831234927 67 52 1.0 3.0 0.00 0.00 0.00 68 1009.2
20260831234201 68 356 2.0 4.0 0.00 0.00 0.00 66 1009.2
20260831233700 68 261 2.0 7.0 0.00 0.00 0.00 69 1009.4
20260831233201 67 328 2.0 7.0 0.00 0.00 0.00 68 1009.4
20260831232658 68 355 2.0 5.0 0.00 0.00 0.00 69 1009.5
20260831232153 67 316 2.0 5.0 0.00 0.00 0.00 68 1009.6
20260831231652 68 309 2.0 7.0 0.00 0.00 0.00 68 1009.7
20260831231155 68 309 2.0 7.0 0.00 0.00 0.00 69 1009.7
20260831230652 67 308 2.0 5.0 0.00 0.00 0.00 68 1009.9
20260831230149 69 309 2.0 5.0 0.00 0.00 0.00 68 1009.9
20260831225650 67 311 2.0 9.0 0.00 0.00 0.00 69 1010.0
20260831225421 67 307 3.0 9.0 0.00 0.00 0.00 69 1010.0
20260831224649 68 311 3.0 8.0 0.00 0.00 0.00 69 1010.0
20260831224150 67 301 3.0 7.0 0.00 0.00 0.00 68 1010.1
20260831223650 68 245 2.0 7.0 0.00 0.00 0.00 68 1010.1
20260831223418 68 332 2.0 8.0 0.00 0.00 0.00 70 1010.2
20260831222648 67 326 3.0 8.0 0.00 0.00 0.00 69 1010.1
20260831222149 66 331 3.0 9.0 0.00 0.00 0.00 70 1010.2
20260831221648 67 242 3.0 9.0 0.00 0.00 0.00 71 1010.3
20260831221148 67 309 2.0 7.0 0.00 0.00 0.00 72 1010.4
20260831220648 66 80 2.0 8.0 0.00 0.00 0.00 74 1010.5
20260831220146 66 324 3.0 8.0 0.00 0.00 0.00 72 1010.6
20260831215640 66 128 2.0 8.0 0.00 0.00 0.00 73 1010.7
20260831215405 66 295 2.0 8.0 0.00 0.00 0.00 74 1010.7
20260831214637 65 19 2.0 5.0 0.00 0.00 0.00 75 1010.8
20260831214138 66 249 2.0 5.0 0.00 0.00 0.00 75 1010.9
20260831213909 68 290 2.0 5.0 0.00 0.00 0.00 72 1010.9
20260831213137 66 260 2.0 8.0 0.00 0.00 0.00 74 1010.9
20260831212638 66 295 2.0 8.0 0.00 0.00 0.00 76 1011.0
20260831212411 65 319 3.0 7.0 0.00 0.00 0.00 77 1011.0
20260831211638 65 290 3.0 9.0 0.00 0.00 0.00 77 1011.0
20260831211139 65 330 3.0 9.0 0.00 0.00 0.00 76 1011.1
20260831210637 66 295 2.0 7.0 0.00 0.00 0.00 76 1011.0
20260831210138 66 310 2.0 5.0 0.00 0.00 0.00 74 1011.1
20260831205638 67 347 2.0 5.0 0.00 0.00 0.00 74 1011.2
20260831205138 67 295 2.0 5.0 0.00 0.00 0.00 74 1011.3
20260831204637 66 295 2.0 4.0 0.00 0.00 0.00 73 1011.3
20260831204138 66 22 2.0 5.0 0.00 0.00 0.00 74 1011.4
20260831203637 65 319 2.0 5.0 0.00 0.00 0.00 78 1011.5
20260831203138 64 299 2.0 5.0 0.00 0.00 0.00 75 1011.7
20260831202643 64 339 2.0 5.0 0.00 0.00 0.00 76 1011.7
20260831201642 65 353 1.0 4.0 0.00 0.00 0.00 76 1011.8
20260831201142 65 314 2.0 7.0 0.00 0.00 0.00 76 1011.9
20260831200640 64 303 3.0 7.0 0.00 0.00 0.00 77 1012.0
20260831200140 63 313 3.0 7.0 0.00 0.00 0.00 77 1012.0
20260831195634 64 309 3.0 7.0 0.00 0.00 0.00 77 1012.0
20260831195131 64 1 3.0 7.0 0.00 0.00 0.00 75 1012.0
20260831194629 64 309 3.0 6.0 0.00 0.00 0.00 75 1012.1
20260831194129 65 305 3.0 7.0 0.00 0.00 0.00 74 1012.1
20260831193629 65 309 2.0 7.0 0.00 0.00 0.00 74 1012.3
20260831193129 64 301 3.0 8.0 0.00 0.00 0.00 77 1012.3
20260831192629 63 204 3.0 8.0 0.00 0.00 0.00 78 1012.4
20260831192128 64 310 2.0 6.0 0.00 0.00 0.00 76 1012.4
20260831191630 63 317 2.0 6.0 0.00 0.00 0.00 76 1012.5
20260831190632 63 280 2.0 6.0 0.00 0.00 0.00 76 1012.8
20260831190132 63 308 1.0 4.0 0.00 0.00 0.00 76 1012.6
20260831185632 64 307 2.0 7.0 0.00 0.00 0.00 74 1012.6
20260831185132 63 52 3.0 7.0 0.00 0.00 0.00 76 1012.8
20260831184631 63 309 3.0 5.0 0.00 0.00 0.00 75 1012.9
20260831184130 63 307 2.0 5.0 0.00 0.00 0.00 75 1012.9
20260831183629 63 312 2.0 6.0 0.00 0.00 0.00 75 1012.9
20260831183129 63 332 2.0 6.0 0.00 0.00 0.00 74 1013.1
20260831182629 63 320 1.0 4.0 0.00 0.00 0.00 76 1013.1
20260831182128 63 62 2.0 5.0 0.00 0.00 0.00 75 1013.1
20260831181629 63 48 2.0 5.0 0.00 0.00 0.00 75 1013.2
20260831181129 62 35 2.0 5.0 0.00 0.00 0.00 77 1013.0
20260831180629 62 334 1.0 5.0 0.00 0.00 0.00 76 1013.1
20260831180128 62 13 1.0 4.0 0.00 0.00 0.00 77 1013.1
20260831175629 62 49 1.0 4.0 0.00 0.00 0.00 77 1013.0
20260831175129 62 49 1.0 4.0 0.00 0.00 0.00 77 1013.0
20260831174629 62 91 2.0 6.0 0.00 0.00 0.00 77 1013.1
20260831174132 62 47 2.0 6.0 0.00 0.00 0.00 77 1013.1
20260831173623 62 92 2.0 6.0 0.00 0.00 0.00 78 1013.2
20260831173117 62 74 1.0 6.0 0.00 0.00 0.00 78 1013.2
20260831172611 61 60 2.0 5.0 0.00 0.00 0.00 79 1013.3
20260831172111 61 137 2.0 5.0 0.00 0.00 0.00 79 1013.2
20260831171836 61 5 2.0 6.0 0.00 0.00 0.00 81 1013.2
20260831171112 60 30 2.0 6.0 0.00 0.00 0.00 82 1013.3
20260831170843 60 30 2.0 6.0 0.00 0.00 0.00 82 1013.3
20260831170112 60 35 1.0 4.0 0.00 0.00 0.00 82 1013.3
20260831165609 60 26 1.0 4.0 0.00 0.00 0.00 82 1013.4
20260831165107 60 76 1.0 4.0 0.00 0.00 0.00 82 1013.4
20260831164107 60 101 1.0 4.0 0.00 0.00 0.00 83 1013.3
20260831163605 59 46 1.0 7.0 0.00 0.00 0.00 83 1013.3
20260831163105 59 321 2.0 7.0 0.00 0.00 0.00 84 1013.4
20260831162606 59 43 2.0 5.0 0.00 0.00 0.00 84 1013.3
20260831162330 59 47 2.0 4.0 0.00 0.00 0.00 85 1013.4
20260831161829 58 12 2.0 4.0 0.00 0.00 0.00 86 1013.4
20260831161103 58 10 2.0 5.0 0.00 0.00 0.00 87 1013.4
20260831160825 58 40 2.0 5.0 0.00 0.00 0.00 88 1013.4
20260831155827 58 36 2.0 6.0 0.00 0.00 0.00 88 1013.5
20260831155059 58 40 1.0 6.0 0.00 0.00 0.00 88 1013.6
20260831154819 58 65 1.0 3.0 0.00 0.00 0.00 88 1013.5
20260831154053 58 53 1.0 3.0 0.00 0.00 0.00 88 1013.5
20260831153551 58 58 1.0 5.0 0.00 0.00 0.00 88 1013.6
20260831153051 58 54 1.0 5.0 0.00 0.00 0.00 88 1013.7
20260831152551 58 39 1.0 4.0 0.00 0.00 0.00 89 1013.8
20260831151547 57 110 2.0 5.0 0.00 0.00 0.00 89 1013.7
20260831151045 57 110 1.0 5.0 0.00 0.00 0.00 89 1013.7
20260831150543 57 103 1.0 5.0 0.00 0.00 0.00 89 1013.7
20260831150309 57 102 1.0 5.0 0.00 0.00 0.00 89 1013.8
20260831145543 57 103 1.0 5.0 0.00 0.00 0.00 89 1013.8
20260831145041 57 107 1.0 5.0 0.00 0.00 0.00 89 1013.8
20260831144539 57 95 1.0 3.0 0.00 0.00 0.00 89 1013.7
20260831144038 56 41 1.0 4.0 0.00 0.00 0.00 89 1013.7
20260831143039 56 97 1.0 4.0 0.00 0.00 0.00 90 1013.7
20260831142539 56 100 1.0 4.0 0.00 0.00 0.00 91 1013.6
20260831141538 56 103 2.0 5.0 0.00 0.00 0.00 91 1013.5
20260831141039 56 103 1.0 5.0 0.00 0.00 0.00 92 1013.5
20260831140537 56 79 0.0 0.0 0.00 0.00 0.00 92 1013.5
20260831140035 55 79 0.0 0.0 0.00 0.00 0.00 91 1013.5
20260831135801 55 79 0.0 0.0 0.00 0.00 0.00 92 1013.4
20260831135035 55 79 0.0 0.0 0.00 0.00 0.00 92 1013.5
20260831134801 55 79 0.0 0.0 0.00 0.00 0.00 92 1013.5
20260831134034 55 79 0.0 0.0 0.00 0.00 0.00 91 1013.5
20260831133535 55 80 0.0 0.0 0.00 0.00 0.00 91 1013.5
20260831133038 55 80 0.0 0.0 0.00 0.00 0.00 91 1013.5
20260831132801 55 80 0.0 0.0 0.00 0.00 0.00 91 1013.6
20260831132038 55 80 0.0 0.0 0.00 0.00 0.00 91 1013.5
20260831131801 55 80 0.0 0.0 0.00 0.00 0.00 91 1013.6
20260831131035 55 80 0.0 0.0 0.00 0.00 0.00 91 1013.6
20260831130536 55 80 0.0 0.0 0.00 0.00 0.00 91 1013.6
20260831130034 55 80 0.0 0.0 0.00 0.00 0.00 91 1013.8
20260831125530 55 80 0.0 0.0 0.00 0.00 0.00 91 1013.8
20260831125030 55 80 0.0 0.0 0.00 0.00 0.00 91 1013.9
20260831124531 56 80 0.0 0.0 0.00 0.00 0.00 92 1013.8
20260831124030 55 80 0.0 0.0 0.00 0.00 0.00 92 1013.9
20260831123529 56 80 0.0 0.0 0.00 0.00 0.00 91 1013.9
20260831123031 56 80 0.0 0.0 0.00 0.00 0.00 91 1013.9
20260831122531 56 80 0.0 0.0 0.00 0.00 0.00 91 1014.0
20260831122305 56 80 0.0 0.0 0.00 0.00 0.00 91 1014.0
20260831121801 56 80 0.0 3.0 0.00 0.00 0.00 91 1014.1
20260831121030 56 80 1.0 3.0 0.00 0.00 0.00 91 1014.1
20260831120530 56 80 1.0 3.0 0.00 0.00 0.00 91 1014.0
20260831120258 56 80 1.0 2.0 0.00 0.00 0.00 91 1014.1
20260831115530 56 80 1.0 3.0 0.00 0.00 0.00 90 1014.2
20260831115029 56 80 2.0 3.0 0.00 0.00 0.00 90 1014.2
20260831114529 56 80 1.0 3.0 0.00 0.00 0.00 89 1014.2
20260831114029 56 80 0.0 3.0 0.00 0.00 0.00 89 1014.2
20260831113529 57 79 1.0 3.0 0.00 0.00 0.00 89 1014.3
20260831113029 56 79 2.0 3.0 0.00 0.00 0.00 88 1014.4
20260831112528 56 68 1.0 3.0 0.00 0.00 0.00 87 1014.4
20260831112022 56 68 1.0 3.0 0.00 0.00 0.00 85 1014.4
20260831111516 56 68 1.0 3.0 0.00 0.00 0.00 85 1014.4
20260831111014 56 68 1.0 3.0 0.00 0.00 0.00 85 1014.5
20260831110517 56 106 1.0 2.0 0.00 0.00 0.00 84 1014.5
20260831110012 56 106 1.0 3.0 0.00 0.00 0.00 83 1014.5
20260831105511 56 106 2.0 3.0 0.00 0.00 0.00 82 1014.4
20260831105008 56 106 1.0 2.0 0.00 0.00 0.00 82 1014.5
20260831104509 57 106 1.0 3.0 0.00 0.00 0.00 82 1014.5
20260831104008 57 106 2.0 3.0 0.00 0.00 0.00 81 1014.4
20260831103506 57 106 2.0 3.0 0.00 0.00 0.00 81 1014.5
20260831103006 57 106 2.0 4.0 0.00 0.00 0.00 81 1014.5
20260831102506 57 106 2.0 4.0 0.00 0.00 0.00 80 1014.5
20260831102004 57 106 2.0 4.0 0.00 0.00 0.00 81 1014.6
20260831101504 57 106 2.0 4.0 0.00 0.00 0.00 81 1014.6
20260831101002 57 102 2.0 3.0 0.00 0.00 0.00 81 1014.8
20260831100501 57 103 3.0 5.0 0.00 0.00 0.00 81 1014.8
20260831100001 57 103 3.0 5.0 0.00 0.00 0.00 81 1014.9
20260831095736 57 104 2.0 3.0 0.00 0.00 0.00 80 1014.9
20260831095003 57 104 2.0 5.0 0.00 0.00 0.00 80 1015.0
20260831094736 57 104 2.0 5.0 0.00 0.00 0.00 80 1015.0
20260831094003 57 104 2.0 3.0 0.00 0.00 0.00 80 1015.1
20260831093457 57 104 2.0 3.0 0.00 0.00 0.00 80 1015.2
20260831092954 58 104 2.0 3.0 0.00 0.00 0.00 79 1015.1
20260831092444 58 105 2.0 4.0 0.00 0.00 0.00 79 1015.2
20260831091939 58 105 2.0 5.0 0.00 0.00 0.00 79 1015.2
20260831091701 58 107 3.0 6.0 0.00 0.00 0.00 80 1015.3
20260831090929 58 106 3.0 6.0 0.00 0.00 0.00 79 1015.3
20260831090429 57 108 3.0 5.0 0.00 0.00 0.00 80 1015.3
20260831085929 57 92 3.0 5.0 0.00 0.00 0.00 80 1015.3
20260831085429 57 92 3.0 4.0 0.00 0.00 0.00 80 1015.4
20260831084928 58 92 2.0 4.0 0.00 0.00 0.00 80 1015.5
20260831084429 58 92 3.0 6.0 0.00 0.00 0.00 79 1015.5
20260831083929 58 92 3.0 6.0 0.00 0.00 0.00 79 1015.7
20260831083429 58 116 2.0 5.0 0.00 0.00 0.00 80 1015.6
20260831082929 58 103 2.0 5.0 0.00 0.00 0.00 80 1015.6
20260831082429 58 108 3.0 5.0 0.00 0.00 0.00 80 1015.7
20260831081929 58 111 2.0 4.0 0.00 0.00 0.00 80 1015.7
20260831081429 58 118 2.0 3.0 0.00 0.00 0.00 80 1015.8
20260831080929 58 118 2.0 3.0 0.00 0.00 0.00 80 1015.8
20260831080429 58 118 2.0 3.0 0.00 0.00 0.00 80 1015.8
20260831075929 57 118 2.0 3.0 0.00 0.00 0.00 80 1015.8
20260831075432 57 118 2.0 3.0 0.00 0.00 0.00 80 1015.8
20260831074929 57 118 2.0 3.0 0.00 0.00 0.00 80 1015.9
20260831074423 57 118 2.0 3.0 0.00 0.00 0.00 80 1016.0
20260831073917 57 118 2.0 3.0 0.00 0.00 0.00 80 1016.0
20260831073641 57 119 2.0 3.0 0.00 0.00 0.00 80 1016.0
20260831072914 58 119 2.0 3.0 0.00 0.00 0.00 80 1016.0
20260831072414 58 119 2.0 3.0 0.00 0.00 0.00 79 1016.2
20260831071912 57 119 2.0 3.0 0.00 0.00 0.00 80 1016.2
20260831071412 57 119 2.0 3.0 0.00 0.00 0.00 80 1016.3
20260831070911 57 119 2.0 3.0 0.00 0.00 0.00 79 1016.3
20260831070412 57 119 2.0 3.0 0.00 0.00 0.00 79 1016.2
20260831065911 57 119 2.0 3.0 0.00 0.00 0.00 79 1016.3
20260831065409 57 119 2.0 3.0 0.00 0.00 0.00 79 1016.3
20260831064907 58 119 2.0 3.0 0.00 0.00 0.00 80 1016.3
20260831064632 58 119 2.0 3.0 0.00 0.00 0.00 80 1016.3
20260831063904 58 119 2.0 3.0 0.00 0.00 0.00 80 1016.4
20260831063402 58 119 2.0 3.0 0.00 0.00 0.00 80 1016.4
20260831062859 58 120 2.0 3.0 0.00 0.00 0.00 80 1016.5
20260831062353 58 120 2.0 3.0 0.00 0.00 0.00 80 1016.5
20260831061852 58 120 1.0 3.0 0.00 0.00 0.00 80 1016.5
20260831061353 58 120 1.0 3.0 0.00 0.00 0.00 80 1016.6
20260831060856 59 120 2.0 3.0 0.00 0.00 0.00 79 1016.5
20260831060353 59 150 1.0 3.0 0.00 0.00 0.00 79 1016.6
20260831055853 59 150 1.0 2.0 0.00 0.00 0.00 79 1016.6
20260831055353 59 150 1.0 3.0 0.00 0.00 0.00 78 1016.5
20260831055119 58 150 1.0 3.0 0.00 0.00 0.00 78 1016.6
20260831054351 58 150 1.0 2.0 0.00 0.00 0.00 78 1016.6
20260831053851 58 150 0.0 0.0 0.00 0.00 0.00 78 1016.6
20260831052847 58 150 0.0 0.0 0.00 0.00 0.00 78 1016.7
20260831052347 58 150 0.0 0.0 0.00 0.00 0.00 78 1016.7
20260831051847 58 150 0.0 0.0 0.00 0.00 0.00 78 1016.8
20260831051344 58 150 0.0 0.0 0.00 0.00 0.00 78 1016.8
20260831050844 58 150 0.0 0.0 0.00 0.00 0.00 78 1016.8
20260831050613 58 150 0.0 0.0 0.00 0.00 0.00 78 1016.9
20260831045844 58 150 0.0 0.0 0.00 0.00 0.00 78 1017.0
20260831045346 58 150 0.0 0.0 0.00 0.00 0.00 78 1017.0
20260831044846 58 150 0.0 0.0 0.00 0.00 0.00 77 1017.0
20260831044345 59 150 0.0 0.0 0.00 0.00 0.00 77 1017.0
20260831043845 59 150 0.0 0.0 0.00 0.00 0.00 78 1017.0
20260831043345 59 150 0.0 0.0 0.00 0.00 0.00 77 1017.1
20260831042840 59 150 0.0 0.0 0.00 0.00 0.00 77 1017.0
20260831042341 59 150 0.0 0.0 0.00 0.00 0.00 76 1017.1
20260831041841 59 150 0.0 0.0 0.00 0.00 0.00 76 1017.2
20260831041340 59 150 0.0 0.0 0.00 0.00 0.00 76 1017.3
20260831040841 59 150 0.0 0.0 0.00 0.00 0.00 76 1017.2
20260831040342 59 150 0.0 0.0 0.00 0.00 0.00 77 1017.3
20260831040111 59 150 0.0 2.0 0.00 0.00 0.00 77 1017.3
20260831035344 59 150 1.0 2.0 0.00 0.00 0.00 76 1017.3
20260831034842 59 150 2.0 2.0 0.00 0.00 0.00 77 1017.2
20260831034340 59 150 2.0 2.0 0.00 0.00 0.00 77 1017.2
20260831033836 59 150 1.0 2.0 0.00 0.00 0.00 76 1017.2
20260831033336 60 151 0.0 1.0 0.00 0.00 0.00 76 1017.3
20260831032835 60 151 0.0 2.0 0.00 0.00 0.00 76 1017.2
20260831032335 60 151 0.0 2.0 0.00 0.00 0.00 75 1017.2
20260831032056 60 151 0.0 0.0 0.00 0.00 0.00 75 1017.1
20260831031555 61 151 0.0 0.0 0.00 0.00 0.00 76 1017.0
20260831031057 62 151 0.0 2.0 0.00 0.00 0.00 72 1017.1
20260831030328 62 151 0.0 2.0 0.00 0.00 0.00 71 1017.1
20260831025831 62 150 1.0 6.0 0.00 0.00 0.00 72 1017.1
20260831025329 62 193 1.0 6.0 0.00 0.00 0.00 73 1017.3
20260831024829 62 130 1.0 3.0 0.00 0.00 0.00 72 1017.2
20260831024328 62 106 1.0 3.0 0.00 0.00 0.00 72 1017.1
20260831023829 62 106 1.0 3.0 0.00 0.00 0.00 73 1017.2
20260831023328 62 45 0.0 2.0 0.00 0.00 0.00 73 1017.1
20260831022329 62 320 1.0 2.0 0.00 0.00 0.00 73 1017.4
20260831021832 62 320 1.0 2.0 0.00 0.00 0.00 74 1017.3
20260831021332 63 320 0.0 2.0 0.00 0.00 0.00 74 1017.3
20260831020833 63 320 0.0 1.0 0.00 0.00 0.00 74 1017.3